Tracking 35274 objects as of 12-Sep-2026
HD Live streaming from Space Station
objects crossing your sky now

STARLINK-30534

Track STARLINK-30534 now!
10-day predictions
STARLINK-30534 is classified as:


NORAD ID: 57992
Int'l Code: 2023-153B
Launch date: October 5, 2023
Source: United States (US)
Launch site: AIR FORCE EASTERN TEST RANGE (AFETR)
Your satellite tracking list
Your tracking list is empty




NASA's NSSDC Master Catalog

Two Line Element Set (TLE):
1 57992U 23153B   26254.93715432  .00002655  00000-0  10599-3 0  9994
2 57992  43.0029  94.9618 0000772 265.5462  94.5301 15.27575326163280
Source of the keplerian elements: AFSPC